Location: Rounton
(54.4000°N, 1.3500°W)
Time: 22:49:51
(UTC+00:00)

deb Explorer IX - Pass Details

Date: 15 December 2021
Orbit: 544 x 1082 km, 38.8° (Epoch: 28 January)

Event Time Altitude Azimuth Distance (km) Brightness Sun altitude
Rises 05:36:32 0° 209° (SSW) 3,722 ? -22.2°
Reaches altitude 10° 05:41:16 10° 181° (S) 2,658 ? -21.5°
Maximum altitude 05:43:28 12° 161° (SSE) 2,459 ? -21.2°
Drops below altitude 10° 05:45:35 10° 140° (SE) 2,530 ? -20.9°
Sets 05:49:47 0° 110° (ESE) 3,324 ? -20.3°
